Regional Weather Roundup
Issued by NWS Albany, NY

Home | Current Version | Previous Version | Text Only | Print | Product List | Glossary On
Versions: 1 2 3 4 5 6 7 8 9 10 11 12 13 14 15 16 17 18 19 20 21 22 23 24 25 26 27 28 29 30 31 32 33 34 35 36 37 38 39 40 41 42 43 44 45 46 47 48 49 50
000
ASUS41 KALY 180210
RWRALY

NEW YORK STATE HOURLY WEATHER ROUNDUP
NATIONAL WEATHER SERVICE ALBANY NY
900 PM EST WED DEC 17 2014

NOTE: "FAIR" INDICATES FEW OR NO CLOUDS BELOW 12,000 FEET WITH NO
SIGNIFICANT WEATHER AND/OR NO OBSTRUCTIONS TO VISIBILITY.

NYZ032-033-038>043-046>054-057>066-NYZ062>081-180300-
EAST


CITY           SKY/WX    TMP DP  RH WIND       PRES   REMARKS
ALBANY         CLOUDY    38  29  70 W8        29.86S WCI  32
GLENS FALLS    LGT RAIN  37  30  75 SW9       29.81S WCI  30
POUGHKEEPSIE   CLOUDY    43  29  57 W12G21    29.86R
NEWBURGH       CLOUDY    39  34  81 W12       29.88S WCI  32
MONTGOMERY     CLOUDY    40  31  70 W7        29.87S
WHITE PLAINS   MOCLDY    41  31  67 NW8       29.86R
ISLIP          PTCLDY    44  31  60 NW12G23   29.85R
NEW YORK CITY  MOCLDY    45  33  63 W15G24    29.89R
CENTRAL PARK   CLOUDY    45  32  60 W8        29.92R
$$

NYZ005>009-017-018-044>046-055-056-180300-
CENTRAL


CITY           SKY/WX    TMP DP  RH WIND       PRES   REMARKS
FULTON         LGT SNOW  34  30  85 W13       29.90R FOG     WCI  25
SYRACUSE       FLURRIES  33  32  96 W21       29.91S WCI  21
ROME           CLOUDY    33  32  96 W13       29.89S WCI  24
ELMIRA         CLOUDY    35  26  69 W16       29.93S WCI  25
BINGHAMTON     CLOUDY    31  27  85 W12G26    29.87S WCI  22
MONTICELLO     CLOUDY    34  30  86 W12G21    29.87R WCI  25
$$

NYZ026>034-041>043-180300-
NORTH


CITY           SKY/WX    TMP DP  RH WIND       PRES   REMARKS
WATERTOWN      CLOUDY    39  31  72 W14G21    29.85R WCI  31
FORT DRUM      NOT AVBL
MASSENA        MIX PCPN  34  32  92 W7        29.80S WCI  28
SARANAC LAKE   CLOUDY    32  32 100 W9        29.72F HAZE    WCI  24
PLATTSBURGH    FOG       34  34 100 CALM      29.77S VSB 3/4
$$

NYZ001>004-010>016-019>021-180300-
WEST


CITY           SKY/WX    TMP DP  RH WIND       PRES   REMARKS
NIAGARA FALLS  LGT SNOW  31  28  89 W16       29.98S FOG     WCI  20
BUFFALO        LGT SNOW  31  27  85 W15       29.98S FOG     WCI  20
DUNKIRK        FLURRIES  32  25  75 W17G30    30.03S WCI  21
JAMESTOWN      CLOUDY    27  23  86 W10       29.99S WCI  17
WELLSVILLE     CLOUDY    28  23  81 W18G26    29.93F WCI  15
ROCHESTER      LGT SNOW  33  29  85 W17       29.94S FOG     WCI  22
PENN YAN       CLOUDY    35  25  66 W13G26    29.92S WCI  26
$$

             KEY
       WCI = WIND CHILL INDEX
       VSB = VISIBILITY
       HX  = HEAT INDEX
$$



USA.gov is the U.S. government's official web portal to all federal, state and local government web resources and services.